Tracking 19245 objects as of 18-Aug-2018
HD Live streaming from Space Station
objects crossing your sky now

NOAA 16 DEB

Track NOAA 16 DEB now!
10-day predictions


NORAD ID: 41048
Int'l Code: 2000-055F
Perigee: 778.5 km
Apogee: 839.3 km
Inclination: 99.2 °
Period: 100.9 minutes
Semi major axis: 7179 km
RCS: Unknown
Launch date: September 21, 2000
Source: United States (US)
Launch site: AIR FORCE WESTERN TEST RANGE (AFWTR)

Note: This is SATELLITE DEBRIS
aabbcc
Your satellite tracking list
Your tracking list is empty




NASA's NSSDC Master Catalog

Two Line Element Set (TLE):
1 41048U 00055F   18229.31718082 -.00012317  00000-0 -50037-2 0  9992
2 41048  99.1843 346.2183 0042291 113.4439 247.1194 14.27004516141388
Source of the keplerian elements: AFSPC